Hourly Weather Suhosarmatka

Today, 17 January, Sunday

Time Temperature Precipitation Wind Pressure Humidity
00:00 -7°C° 0 mm 1 mps 759 mmHg 78%
01:00 -8°C° 0 mm 2 mps 758 mmHg 78%
02:00 -8°C° 0 mm 2 mps 758 mmHg 78%
03:00 -9°C° 0 mm 3 mps 757 mmHg 80%
04:00 -9°C° 0 mm 3 mps 757 mmHg 79%
05:00 -10°C° 0 mm 4 mps 757 mmHg 79%
06:00 -10°C° 0 mm 4 mps 756 mmHg 78%
07:00 -11°C° 0 mm 5 mps 756 mmHg 77%
08:00 -11°C° 0 mm 6 mps 756 mmHg 77%
09:00 -12°C° 0 mm 7 mps 756 mmHg 75%
10:00 -11°C° 0 mm 7 mps 755 mmHg 76%
11:00 -11°C° 0 mm 7 mps 755 mmHg 76%
12:00 -11°C° 0 mm 7 mps 755 mmHg 77%
13:00 -11°C° 0.6 mm 7 mps 754 mmHg 81%
14:00 -11°C° 0.6 mm 8 mps 754 mmHg 85%
15:00 -11°C° 0.6 mm 9 mps 753 mmHg 89%
16:00 -11°C° 0.6 mm 9 mps 753 mmHg 90%
17:00 -11°C° 0.6 mm 9 mps 753 mmHg 92%
18:00 -12°C° 0.6 mm 9 mps 753 mmHg 93%
19:00 -12°C° 0.6 mm 8 mps 753 mmHg 93%
20:00 -12°C° 0.6 mm 8 mps 753 mmHg 93%
21:00 -12°C° 0.6 mm 8 mps 753 mmHg 93%
22:00 -12°C° 0.4 mm 8 mps 753 mmHg 93%
23:00 -12°C° 0.4 mm 8 mps 753 mmHg 92%

Tomorrow, 18 January, Monday

Time Temperature Precipitation Wind Pressure Humidity
00:00 -13°C° 0.4 mm 8 mps 753 mmHg 92%
01:00 -13°C° 0.7 mm 7 mps 754 mmHg 92%
02:00 -12°C° 0.7 mm 6 mps 754 mmHg 93%
03:00 -12°C° 0.7 mm 6 mps 754 mmHg 94%
04:00 -13°C° 0.4 mm 5 mps 754 mmHg 93%
05:00 -13°C° 0.4 mm 5 mps 755 mmHg 93%
06:00 -13°C° 0.4 mm 5 mps 755 mmHg 93%
07:00 -14°C° 0 mm 4 mps 755 mmHg 93%
08:00 -15°C° 0 mm 4 mps 756 mmHg 93%
09:00 -14°C° 0 mm 3 mps 757 mmHg 94%
10:00 -14°C° 0 mm 3 mps 757 mmHg 92%
11:00 -14°C° 0 mm 3 mps 758 mmHg 90%
12:00 -13°C° 0 mm 3 mps 758 mmHg 89%
13:00 -13°C° 0 mm 3 mps 758 mmHg 88%
14:00 -12°C° 0 mm 2 mps 758 mmHg 88%
15:00 -10°C° 0 mm 2 mps 758 mmHg 87%
16:00 -12°C° 0 mm 2 mps 759 mmHg 88%
17:00 -12°C° 0 mm 2 mps 759 mmHg 89%
18:00 -10°C° 0 mm 1 mps 759 mmHg 90%
19:00 -11°C° 0 mm 1 mps 760 mmHg 90%
20:00 -11°C° 0 mm 1 mps 760 mmHg 91%
21:00 -11°C° 0 mm 1 mps 760 mmHg 91%
22:00 -12°C° 0 mm 1 mps 760 mmHg 92%
23:00 -12°C° 0 mm 1 mps 760 mmHg 93%

Day after tomorrow, 19 January, Tuesday

Time Temperature Precipitation Wind Pressure Humidity
00:00 -13°C° 0 mm 1 mps 761 mmHg 93%
01:00 -13°C° 0 mm 1 mps 761 mmHg 93%
02:00 -13°C° 0 mm 1 mps 761 mmHg 93%
03:00 -13°C° 0 mm 1 mps 761 mmHg 93%
04:00 -12°C° 0 mm 1 mps 760 mmHg 93%
05:00 -12°C° 0 mm 1 mps 760 mmHg 93%
06:00 -12°C° 0 mm 0 mps 760 mmHg 93%
07:00 -12°C° 0.2 mm 1 mps 760 mmHg 93%
08:00 -14°C° 0.2 mm 2 mps 760 mmHg 94%
09:00 -13°C° 0.2 mm 2 mps 761 mmHg 94%
10:00 -13°C° 0 mm 2 mps 761 mmHg 92%
11:00 -13°C° 0 mm 2 mps 761 mmHg 89%
12:00 -13°C° 0 mm 2 mps 761 mmHg 87%
13:00 -14°C° 0 mm 3 mps 761 mmHg 87%
14:00 -14°C° 0 mm 3 mps 760 mmHg 86%
15:00 -15°C° 0 mm 4 mps 760 mmHg 86%
16:00 -16°C° 0 mm 4 mps 760 mmHg 87%
17:00 -17°C° 0 mm 3 mps 761 mmHg 89%
18:00 -18°C° 0 mm 3 mps 761 mmHg 90%
19:00 -18°C° 0 mm 3 mps 762 mmHg 91%
20:00 -19°C° 0 mm 3 mps 762 mmHg 92%
21:00 -19°C° 0 mm 3 mps 763 mmHg 93%
22:00 -19°C° 0 mm 3 mps 763 mmHg 93%
23:00 -18°C° 0 mm 2 mps 763 mmHg 93%

20 January, Wednesday

Time Temperature Precipitation Wind Pressure Humidity
00:00 -19°C° 0 mm 2 mps 763 mmHg 93%
01:00 -19°C° 0 mm 2 mps 764 mmHg 93%
02:00 -19°C° 0 mm 2 mps 764 mmHg 93%
03:00 -19°C° 0 mm 2 mps 764 mmHg 93%
04:00 -19°C° 0 mm 2 mps 764 mmHg 93%
05:00 -19°C° 0 mm 2 mps 764 mmHg 93%
06:00 -19°C° 0 mm 2 mps 764 mmHg 93%
07:00 -19°C° 0 mm 2 mps 765 mmHg 92%
08:00 -17°C° 0 mm 1 mps 765 mmHg 92%
09:00 -17°C° 0 mm 1 mps 765 mmHg 91%
10:00 -16°C° 0 mm 1 mps 766 mmHg 89%
11:00 -14°C° 0 mm 1 mps 766 mmHg 86%
12:00 -13°C° 0 mm 1 mps 766 mmHg 84%
13:00 -12°C° 0 mm 1 mps 766 mmHg 84%
14:00 -12°C° 0 mm 1 mps 766 mmHg 85%
15:00 -11°C° 0 mm 1 mps 766 mmHg 85%
16:00 -12°C° 0 mm 1 mps 766 mmHg 87%
17:00 -13°C° 0 mm 1 mps 767 mmHg 88%
18:00 -14°C° 0 mm 0 mps 767 mmHg 90%
19:00 -15°C° 0 mm 1 mps 767 mmHg 90%
20:00 -15°C° 0 mm 1 mps 768 mmHg 90%
21:00 -15°C° 0 mm 1 mps 768 mmHg 90%
22:00 -15°C° 0 mm 1 mps 768 mmHg 90%
23:00 -15°C° 0 mm 1 mps 768 mmHg 90%

21 January, Thursday

Time Temperature Precipitation Wind Pressure Humidity
00:00 -15°C° 0 mm 1 mps 768 mmHg 90%
01:00 -15°C° 0 mm 1 mps 768 mmHg 90%
02:00 -15°C° 0 mm 1 mps 768 mmHg 91%
03:00 -15°C° 0 mm 1 mps 769 mmHg 92%
04:00 -16°C° 0 mm 2 mps 768 mmHg 93%
05:00 -16°C° 0 mm 2 mps 768 mmHg 94%
06:00 -16°C° 0 mm 2 mps 768 mmHg 95%
07:00 -16°C° 0 mm 2 mps 769 mmHg 95%
08:00 -16°C° 0 mm 3 mps 769 mmHg 95%
09:00 -16°C° 0 mm 3 mps 769 mmHg 95%
10:00 -15°C° 0 mm 3 mps 769 mmHg 94%
11:00 -14°C° 0 mm 3 mps 769 mmHg 92%
12:00 -12°C° 0 mm 3 mps 768 mmHg 90%
13:00 -10°C° 0 mm 3 mps 768 mmHg 91%
14:00 -10°C° 0 mm 3 mps 768 mmHg 92%
15:00 -9°C° 0 mm 3 mps 767 mmHg 93%
16:00 -9°C° 0 mm 3 mps 767 mmHg 94%
17:00 -8°C° 0 mm 3 mps 767 mmHg 95%
18:00 -7°C° 0 mm 2 mps 767 mmHg 95%
19:00 -7°C° 0.1 mm 3 mps 767 mmHg 96%
20:00 -6°C° 0.1 mm 3 mps 767 mmHg 96%
21:00 -5°C° 0.1 mm 3 mps 766 mmHg 97%
22:00 -4°C° 0.2 mm 3 mps 766 mmHg 97%
23:00 -3°C° 0.2 mm 4 mps 766 mmHg 97%

22 January, Friday

Time Temperature Precipitation Wind Pressure Humidity
00:00 -2°C° 0.2 mm 4 mps 766 mmHg 98%
01:00 -1°C° 0.1 mm 5 mps 766 mmHg 97%
02:00 0°C° 0.1 mm 5 mps 766 mmHg 97%
03:00 +1°C° 0.1 mm 5 mps 766 mmHg 97%
04:00 +1°C° 0 mm 5 mps 765 mmHg 96%
05:00 +1°C° 0 mm 5 mps 765 mmHg 95%
06:00 +1°C° 0 mm 5 mps 765 mmHg 94%
07:00 0°C° 0 mm 5 mps 765 mmHg 94%
08:00 0°C° 0 mm 5 mps 765 mmHg 94%
09:00 0°C° 0 mm 5 mps 766 mmHg 94%
10:00 0°C° 0 mm 5 mps 766 mmHg 95%
11:00 +1°C° 0 mm 5 mps 765 mmHg 97%
12:00 +1°C° 0 mm 5 mps 765 mmHg 98%
13:00 +1°C° 0 mm 5 mps 765 mmHg 98%
14:00 +1°C° 0 mm 5 mps 765 mmHg 99%
15:00 +1°C° 0 mm 5 mps 764 mmHg 99%
16:00 +1°C° 0 mm 5 mps 764 mmHg 98%
17:00 0°C° 0 mm 5 mps 764 mmHg 98%
18:00 0°C° 0 mm 5 mps 764 mmHg 98%
19:00 0°C° 0 mm 5 mps 764 mmHg 97%
20:00 0°C° 0 mm 5 mps 764 mmHg 97%
21:00 0°C° 0 mm 5 mps 764 mmHg 97%
22:00 0°C° 0 mm 5 mps 764 mmHg 96%
23:00 0°C° 0 mm 4 mps 764 mmHg 95%
Show more